Temp
73 75 82 83 83 83 83 83 83 83 83 83 83 83 83 83 83 83 83 83 83 83 83 83 84 84 84 84 84 84 83 83 83 83 83 83 83 83 84 84 82 84 83
75 78 82 83 83 83 83 83 83 83 83 83 83 83 84 83 83 83 83 84 83 83 83 83 83 84 84 84 84 84 84 84 84 84 84 84 84 84 83 83 82 83 83
76 79 81 82 83 83 83 83 83 83 83 83 83 84 84 83 83 83 83 84 84 84 84 83 84 84 84 84 85 84 84 84 84 84 83 82 83 83 83 83 83 82 82
77 78 80 82 83 83 83 83 83 84 83 83 83 83 83 84 84 84 84 84 84 84 84 84 84 84 84 84 84 83 83 83 83 82 81 82 84 83 82 83 82 82 82
77 76 79 82 83 83 83 83 83 83 83 83 83 84 84 84 84 84 83 83 84 84 84 83 84 84 83 84 84 84 84 83 83 81 79 79 81 83 83 82 82 82 82
75 75 82 83 84 84 84 84 83 83 83 83 83 83 83 84 84 84 84 84 83 83 84 84 84 84 83 83 83 84 84 84 82 80 79 80 80 83 83 82 82 82 81
74 75 80 83 83 83 83 83 83 83 83 83 83 83 84 84 83 83 83 83 84 84 83 83 84 84 83 83 83 83 83 84 81 79 79 79 79 82 83 83 82 82 82
75 77 78 82 83 83 84 83 83 83 83 83 83 83 83 84 83 83 83 84 84 84 83 83 83 83 83 83 83 83 83 84 82 79 79 79 78 81 83 83 82 82 81
76 76 75 78 82 84 84 84 84 84 83 83 83 83 83 83 83 83 83 83 84 84 84 83 83 83 83 83 83 83 84 84 79 77 80 78 79 81 83 83 82 82 82
74 76 74 75 78 78 79 84 84 84 84 84 84 83 83 84 83 82 82 83 84 84 84 83 83 83 83 83 83 83 84 85 79 77 77 77 79 82 83 84 82 82 82
74 73 74 74 74 75 76 80 83 84 84 84 83 84 80 74 76 77 79 81 83 84 84 83 83 82 82 83 83 83 84 77 78 76 77 78 80 82 84 84 82 82 81
71 72 73 73 75 75 77 76 77 77 76 73 73 73 73 71 72 75 77 80 82 83 83 83 83 83 83 77 77 79 76 77 75 77 76 78 80 83 84 84 83 82 82
73 74 74 75 75 75 75 74 73 71 72 71 72 71 73 72 71 71 71 71 71 77 75 78 78 78 78 76 75 75 76 75 74 77 79 79 80 83 84 84 83 82 82
72 74 74 76 74 74 75 73 73 70 70 69 70 72 70 70 69 70 70 71 70 72 74 74 74 75 75 76 75 75 76 75 74 75 75 79 80 82 83 84 82 83 82
72 74 74 74 73 73 73 73 71 70 70 70 70 71 70 69 69 70 70 70 70 71 72 73 73 73 73 75 76 76 75 74 75 75 75 78 79 81 82 83 83 83 83
73 73 75 74 74 73 73 72 71 70 70 71 70 70 70 69 68 70 70 70 70 70 71 72 72 72 73 74 75 75 75 75 74 74 75 75 78 80 81 82 82 83 83
73 74 74 74 75 73 73 73 71 70 70 70 69 70 69 68 68 70 71 71 72 72 72 73 73 71 72 74 73 74 74 74 75 75 75 74 77 79 80 82 82 82 83
73 73 74 78 75 73 72 71 72 70 70 69 69 70 70 70 70 70 70 72 74 73 71 72 72 72 72 73 74 75 74 75 75 76 77 76 77 80 79 80 80 81 82
74 72 74 75 74 73 71 71 71 71 69 69 71 71 71 72 73 70 71 72 74 73 71 72 72 72 72 73 73 75 74 74 75 78 76 75 77 78 79 78 79 80 83
74 72 73 75 73 72 71 70 70 70 70 70 71 72 73 73 73 73 71 72 73 72 71 72 71 72 72 73 74 74 73 73 73 73 74 77 76 77 78 77 79 81 80
75 73 73 73 71 71 70 70 69 69 70 70 71 73 73 73 74 73 72 72 71 71 71 72 72 71 70 72 72 72 72 73 72 72 73 74 74 76 78 79 79 79 80
75 74 73 73 71 72 72 71 71 71 71 72 72 72 73 74 74 73 73 72 72 71 71 71 72 71 71 72 70 68 67 70 70 72 72 72 72 75 76 77 79 79 79
74 74 73 73 72 73 73 72 71 71 71 70 70 71 72 73 74 74 73 71 71 71 70 71 71 71 70 71 71 70 66 65 66 70 72 71 73 74 73 75 78 79 79
77 76 73 72 72 73 73 72 71 70 69 70 71 72 72 73 72 73 72 72 72 71 71 72 73 72 71 69 71 70 70 70 68 66 70 72 73 74 74 73 77 79 79
77 76 74 71 72 73 73 73 71 70 70 71 71 71 71 72 73 73 71 72 72 73 72 72 73 71 71 71 70 68 67 68 67 67 64 68 71 73 73 73 74 76 80
76 75 73 71 71 72 73 72 71 71 71 70 71 70 71 71 71 71 72 70 71 71 72 73 73 73 72 71 71 70 70 68 65 67 66 68 68 71 73 75 73 76 78
MSLP
1015.01 1014.95 1014.79 1014.89 1015.13 1015.35 1015.48 1015.62 1015.79 1016.02 1016.18 1016.40 1016.61 1016.87 1017.18 1017.40 1017.59 1017.72 1017.70 1017.64 1017.72 1017.67 1017.70 1017.58 1017.50 1017.57 1017.67 1017.91 1018.20 1018.37 1018.46 1018.60 1018.74 1018.85 1019.02 1019.24 1019.41 1019.58 1019.68 1019.87 1020.00 1020.08 1020.24
1014.46 1014.81 1014.93 1015.10 1015.43 1015.70 1015.94 1016.10 1016.33 1016.51 1016.67 1016.83 1016.93 1017.14 1017.35 1017.48 1017.73 1017.89 1017.87 1017.80 1017.86 1017.91 1017.82 1017.81 1017.90 1017.89 1017.94 1018.16 1018.52 1018.73 1018.82 1018.95 1019.06 1019.20 1019.31 1019.53 1019.73 1019.88 1020.01 1020.22 1020.33 1020.37 1020.47
1014.52 1014.89 1015.17 1015.31 1015.66 1016.03 1016.28 1016.51 1016.70 1016.87 1017.07 1017.21 1017.31 1017.45 1017.64 1017.72 1017.82 1017.94 1018.00 1017.98 1018.05 1018.10 1018.06 1018.25 1018.24 1018.27 1018.34 1018.47 1018.70 1018.92 1019.06 1019.16 1019.27 1019.39 1019.72 1019.91 1020.06 1020.19 1020.29 1020.42 1020.53 1020.64 1020.82
1014.42 1015.00 1015.31 1015.57 1015.91 1016.31 1016.56 1016.76 1017.03 1017.27 1017.43 1017.53 1017.63 1017.76 1017.94 1018.06 1018.06 1018.12 1018.24 1018.27 1018.23 1018.31 1018.36 1018.50 1018.55 1018.63 1018.68 1018.84 1019.03 1019.23 1019.29 1019.33 1019.50 1019.83 1020.07 1020.26 1020.18 1020.42 1020.55 1020.56 1020.70 1020.90 1021.04
1014.57 1015.13 1015.50 1015.85 1016.17 1016.52 1016.81 1016.95 1017.16 1017.45 1017.68 1017.80 1017.89 1018.05 1018.19 1018.31 1018.32 1018.25 1018.32 1018.39 1018.47 1018.53 1018.63 1018.76 1018.82 1018.90 1018.93 1019.01 1019.23 1019.44 1019.45 1019.49 1019.66 1020.01 1020.26 1020.39 1020.53 1020.65 1020.78 1020.85 1020.92 1021.04 1021.25
1014.81 1015.30 1015.60 1016.01 1016.34 1016.70 1016.97 1017.12 1017.28 1017.49 1017.71 1017.87 1018.02 1018.24 1018.35 1018.42 1018.48 1018.50 1018.52 1018.53 1018.65 1018.67 1018.74 1018.87 1019.02 1019.13 1019.24 1019.32 1019.39 1019.47 1019.65 1019.72 1019.95 1020.18 1020.41 1020.49 1020.69 1020.69 1020.79 1020.90 1021.02 1021.13 1021.33
1014.98 1015.40 1015.66 1015.98 1016.44 1016.83 1017.10 1017.30 1017.41 1017.51 1017.67 1017.84 1018.06 1018.27 1018.39 1018.42 1018.48 1018.54 1018.55 1018.61 1018.69 1018.74 1018.83 1018.97 1019.14 1019.29 1019.41 1019.49 1019.62 1019.70 1019.83 1019.88 1019.97 1020.16 1020.32 1020.54 1020.75 1020.78 1020.97 1021.08 1021.16 1021.16 1021.36
1015.05 1015.47 1015.73 1016.02 1016.40 1016.78 1017.06 1017.29 1017.47 1017.58 1017.73 1017.86 1018.06 1018.29 1018.38 1018.48 1018.57 1018.66 1018.69 1018.69 1018.87 1018.93 1019.00 1018.98 1019.14 1019.32 1019.44 1019.55 1019.59 1019.70 1019.85 1019.93 1020.05 1020.24 1020.35 1020.50 1020.74 1020.89 1020.97 1021.16 1021.26 1021.30 1021.35
1015.23 1015.61 1015.86 1016.08 1016.36 1016.61 1016.93 1017.18 1017.33 1017.50 1017.77 1017.92 1018.08 1018.24 1018.35 1018.57 1018.67 1018.76 1018.83 1018.84 1018.85 1018.86 1019.06 1019.12 1019.15 1019.28 1019.44 1019.59 1019.66 1019.71 1019.70 1019.80 1020.06 1020.30 1020.24 1020.47 1020.62 1020.83 1020.94 1021.08 1021.34 1021.47 1021.50
1015.51 1015.69 1015.95 1016.20 1016.41 1016.72 1016.95 1017.13 1017.32 1017.50 1017.71 1017.91 1018.03 1018.30 1018.47 1018.53 1018.60 1018.82 1019.00 1019.02 1019.02 1018.91 1018.99 1019.08 1019.14 1019.21 1019.42 1019.54 1019.68 1019.74 1019.65 1019.65 1020.01 1020.24 1020.38 1020.36 1020.49 1020.70 1020.85 1020.87 1021.39 1021.49 1021.58
1015.81 1015.95 1016.07 1016.34 1016.53 1016.73 1016.93 1017.00 1017.25 1017.45 1017.63 1017.77 1018.10 1018.31 1018.65 1018.98 1019.01 1019.14 1019.25 1019.21 1019.12 1019.01 1018.95 1018.97 1019.09 1019.19 1019.29 1019.46 1019.60 1019.69 1019.62 1019.84 1019.95 1020.17 1020.33 1020.40 1020.43 1020.58 1020.60 1020.72 1021.19 1021.36 1021.45
1015.80 1015.98 1016.07 1016.14 1016.41 1016.74 1016.89 1017.04 1017.27 1017.40 1017.64 1017.88 1018.23 1018.63 1018.81 1019.17 1019.18 1019.13 1019.18 1019.17 1019.01 1018.93 1018.92 1018.84 1018.93 1019.07 1019.18 1019.53 1019.66 1019.77 1019.98 1019.99 1019.99 1020.14 1020.23 1020.34 1020.31 1020.34 1020.42 1020.57 1020.95 1021.17 1021.18
1015.46 1015.76 1015.96 1016.26 1016.49 1016.67 1016.91 1017.23 1017.22 1017.36 1017.68 1018.03 1018.29 1018.63 1018.73 1018.92 1019.05 1019.04 1019.21 1019.29 1019.22 1018.95 1019.02 1018.86 1019.05 1019.18 1019.37 1019.51 1019.54 1019.79 1019.93 1020.05 1020.14 1020.04 1019.94 1020.09 1020.23 1020.17 1020.35 1020.41 1020.70 1020.84 1021.06
1015.27 1015.60 1015.98 1016.03 1016.42 1016.65 1016.77 1017.01 1017.09 1017.57 1018.02 1018.34 1018.69 1018.73 1018.82 1018.83 1018.92 1019.06 1019.12 1019.15 1019.20 1019.09 1018.99 1019.04 1019.20 1019.29 1019.38 1019.43 1019.35 1019.45 1019.59 1019.80 1019.93 1020.04 1019.99 1019.96 1020.08 1020.25 1020.38 1020.37 1020.51 1020.53 1020.74
1015.08 1015.36 1015.81 1016.15 1016.36 1016.45 1016.76 1016.97 1017.20 1017.55 1017.68 1018.10 1018.50 1018.75 1018.92 1018.93 1018.98 1018.88 1018.85 1018.94 1019.03 1018.97 1018.86 1018.97 1019.11 1019.19 1019.22 1019.21 1019.10 1019.15 1019.26 1019.58 1019.72 1019.82 1019.84 1019.89 1019.93 1020.05 1020.14 1020.13 1020.15 1020.25 1020.29
1015.01 1015.25 1015.73 1016.01 1016.09 1016.38 1016.68 1016.90 1017.07 1017.41 1017.74 1018.10 1018.43 1018.58 1018.64 1018.75 1018.87 1018.70 1018.61 1018.68 1018.80 1018.72 1018.55 1018.67 1018.84 1019.03 1019.07 1019.04 1018.94 1018.90 1018.96 1019.14 1019.33 1019.29 1019.41 1019.61 1019.69 1019.76 1019.83 1019.87 1019.78 1019.78 1019.85
1014.53 1015.08 1015.36 1015.68 1015.80 1016.28 1016.52 1016.82 1017.11 1017.52 1017.92 1018.13 1018.26 1018.40 1018.49 1018.53 1018.53 1018.54 1018.38 1018.41 1018.38 1018.37 1018.41 1018.42 1018.50 1018.84 1018.77 1018.64 1018.86 1018.61 1018.62 1018.81 1018.81 1018.89 1019.00 1019.17 1019.28 1019.36 1019.41 1019.45 1019.35 1019.25 1019.40
1014.46 1015.08 1015.45 1015.77 1016.11 1016.42 1016.69 1016.94 1017.15 1017.52 1017.83 1018.08 1018.19 1018.12 1018.04 1018.17 1018.27 1018.40 1018.31 1018.04 1017.90 1017.90 1018.16 1018.15 1018.21 1018.30 1018.43 1018.51 1018.58 1018.40 1018.11 1018.25 1018.28 1018.41 1018.55 1018.51 1018.68 1018.85 1018.94 1019.00 1018.78 1018.87 1019.02
1014.18 1014.87 1015.24 1015.52 1015.97 1016.34 1016.45 1016.61 1016.81 1017.00 1017.45 1017.87 1017.95 1017.83 1017.77 1017.75 1017.85 1018.06 1018.08 1017.95 1017.83 1017.72 1017.79 1017.96 1018.02 1018.06 1018.26 1018.21 1018.27 1018.11 1017.82 1017.73 1017.75 1017.84 1017.94 1018.14 1018.01 1018.11 1018.27 1018.44 1018.47 1018.41 1018.42
1013.96 1014.65 1014.92 1015.27 1015.68 1016.06 1016.62 1016.77 1016.80 1016.85 1016.69 1016.78 1017.32 1017.62 1017.59 1017.54 1017.65 1017.83 1017.77 1017.77 1017.75 1017.62 1017.64 1017.81 1017.96 1017.86 1017.77 1017.90 1017.99 1017.84 1017.83 1017.61 1017.57 1017.81 1017.86 1017.85 1017.87 1017.78 1017.80 1017.88 1018.04 1017.91 1017.91
1013.43 1014.30 1014.48 1014.99 1015.48 1016.12 1016.60 1016.95 1016.96 1016.81 1016.63 1016.61 1016.38 1016.60 1017.02 1017.21 1017.29 1017.48 1017.49 1017.55 1017.56 1017.69 1017.55 1017.70 1017.73 1017.75 1017.91 1017.85 1017.92 1017.86 1017.66 1017.44 1017.50 1017.45 1017.53 1017.70 1017.78 1017.76 1017.61 1017.42 1017.42 1017.50 1017.38
1012.94 1013.48 1014.20 1014.76 1015.17 1015.47 1016.16 1016.08 1016.15 1016.33 1016.25 1016.10 1016.10 1016.06 1016.07 1016.52 1016.78 1016.89 1016.80 1016.88 1016.93 1017.23 1017.40 1017.50 1017.59 1017.54 1017.57 1017.54 1017.68 1017.97 1017.78 1017.63 1017.53 1017.28 1017.33 1017.38 1017.46 1017.45 1017.20 1017.06 1016.99 1016.91 1016.91
1012.60 1012.82 1013.48 1014.15 1014.49 1015.22 1015.25 1015.85 1016.06 1016.26 1016.33 1016.18 1016.14 1015.92 1015.86 1015.99 1016.18 1016.29 1016.37 1016.34 1016.51 1016.84 1017.03 1017.11 1017.22 1017.19 1017.19 1017.41 1017.48 1017.55 1017.69 1017.66 1017.54 1017.02 1017.01 1017.08 1017.15 1017.18 1016.93 1016.75 1016.54 1016.37 1016.33
1011.34 1012.34 1012.84 1013.52 1014.27 1014.51 1014.80 1015.58 1015.72 1016.00 1016.22 1016.12 1015.87 1015.70 1015.76 1015.68 1016.00 1016.07 1016.22 1016.05 1016.26 1016.50 1016.80 1016.82 1016.92 1016.90 1017.02 1017.20 1017.45 1017.40 1017.29 1017.41 1017.52 1017.52 1017.12 1016.82 1016.90 1016.82 1016.71 1016.42 1016.14 1015.88 1015.78
1011.35 1011.63 1012.22 1013.02 1013.79 1014.05 1014.34 1014.96 1015.59 1015.66 1015.81 1015.84 1015.84 1015.76 1015.74 1015.40 1015.48 1015.73 1016.22 1016.09 1016.02 1016.04 1016.30 1016.42 1016.64 1016.83 1016.84 1016.78 1016.91 1017.25 1017.50 1017.60 1017.78 1017.97 1017.57 1017.06 1016.74 1016.41 1016.28 1016.16 1015.85 1015.50 1015.24
1011.24 1011.93 1012.04 1012.97 1012.88 1013.36 1013.97 1014.39 1014.80 1014.94 1015.22 1015.66 1015.75 1015.71 1015.70 1015.61 1015.43 1015.26 1015.73 1016.02 1015.94 1016.09 1016.30 1016.39 1016.52 1016.72 1016.83 1016.75 1016.72 1016.77 1016.97 1017.21 1017.44 1017.71 1017.65 1017.23 1016.88 1016.23 1015.93 1015.68 1015.42 1014.96 1014.74
Wind_Speed
4 5 15 17 17 17 17 18 18 18 18 19 18 17 17 15 14 12 11 10 11 11 11 13 14 13 14 15 14 14 14 13 15 15 14 13 14 13 12 13 12 10 12
10 10 16 17 18 17 17 17 18 17 18 18 17 16 16 16 13 13 12 12 12 11 11 13 12 13 14 14 14 14 13 13 13 14 14 12 13 12 12 12 12 11 12
13 11 12 17 18 18 17 17 17 17 18 17 15 15 15 15 16 15 13 12 11 11 13 11 11 12 12 13 12 12 13 11 11 11 12 7 7 11 11 12 11 12 11
12 10 10 17 17 17 17 16 16 17 16 16 15 14 13 13 13 14 13 12 10 9 11 12 10 12 12 11 11 9 10 11 12 11 5 5 7 10 10 11 11 10 10
11 8 11 17 17 17 17 16 15 16 15 15 14 14 12 11 11 12 12 11 10 9 9 9 12 9 9 12 11 9 8 10 11 7 4 4 3 6 8 10 10 10 9
11 8 15 18 18 17 17 16 17 15 14 13 14 13 11 10 10 9 9 9 8 8 8 8 8 9 8 9 10 9 8 7 9 4 3 3 3 7 8 9 9 9 8
11 7 12 17 16 16 15 14 14 15 14 13 12 12 10 9 9 9 9 8 7 7 7 9 9 8 8 8 7 8 6 5 2 1 3 3 2 4 6 6 7 7 7
13 8 9 16 16 15 14 13 13 13 13 12 11 10 9 8 7 6 7 7 7 7 7 7 7 7 7 7 7 7 6 5 2 1 3 4 5 4 6 5 5 6 6
9 8 6 7 12 16 14 13 14 13 13 12 11 10 9 8 7 6 5 6 7 8 8 7 7 7 6 6 6 6 7 7 3 1 5 5 9 8 8 6 5 4 5
6 8 6 6 6 5 6 14 13 13 13 12 10 9 8 7 7 6 3 4 6 7 8 7 7 6 5 5 6 5 6 8 3 2 2 4 11 11 9 8 7 6 5
5 5 5 5 6 6 6 8 13 14 13 12 10 9 5 2 3 4 2 3 7 9 7 8 7 6 5 4 4 6 7 2 3 2 2 6 11 12 11 10 10 10 8
10 7 6 6 7 6 5 4 6 6 4 3 4 3 3 3 2 3 1 3 7 9 8 8 7 7 5 1 1 2 1 1 3 3 3 9 11 15 13 11 11 12 11
11 9 9 7 6 7 5 3 2 2 3 2 4 5 4 3 2 1 1 1 2 6 1 2 2 0 2 2 2 1 1 1 2 3 4 8 9 14 14 11 12 14 12
12 11 9 9 6 7 4 4 4 3 2 3 3 4 3 2 3 2 2 2 3 2 2 1 1 2 3 3 4 3 3 3 2 2 4 8 9 13 13 14 12 14 13
11 12 10 8 7 6 6 3 3 4 4 4 4 4 3 3 3 3 3 2 3 3 3 2 2 2 3 4 4 4 5 6 6 3 3 9 10 12 15 18 18 15 15
10 12 10 10 8 6 6 5 3 3 3 3 2 3 5 4 4 4 3 3 3 4 3 3 3 3 3 3 5 5 5 5 6 6 4 5 12 15 16 17 17 16 16
10 10 12 12 10 8 8 5 3 3 3 3 3 5 6 5 5 5 4 3 5 4 4 4 3 3 3 4 5 5 5 6 7 7 5 5 6 12 12 15 16 17 15
8 10 9 10 10 8 6 4 2 3 3 3 4 3 6 6 6 5 4 5 4 4 4 3 3 3 3 4 3 5 4 5 6 7 6 6 6 7 9 12 15 17 17
10 8 10 11 9 9 6 5 5 6 5 4 4 4 6 6 6 5 4 3 3 3 3 3 3 3 3 3 4 5 4 3 4 5 7 6 8 7 6 10 14 15 19
8 9 8 9 7 7 3 3 2 3 4 4 4 5 5 4 6 4 4 5 3 3 2 3 3 3 3 3 2 2 3 4 3 4 5 5 6 8 9 8 7 8 14
9 9 10 10 7 6 3 2 2 4 3 3 5 8 6 5 6 5 5 4 4 4 3 4 3 4 4 2 1 1 3 5 5 5 4 4 6 6 7 7 5 6 7
11 11 10 10 8 8 4 3 3 3 3 2 3 6 7 5 5 6 7 6 6 5 5 5 4 2 2 3 2 1 1 2 2 6 5 5 7 6 8 7 9 9 8
10 13 11 11 10 8 8 2 1 1 1 1 3 3 3 5 5 6 6 5 5 5 5 4 4 5 3 2 3 2 1 2 2 1 2 4 5 4 5 6 8 9 9
15 9 9 9 9 9 9 6 6 3 3 3 2 1 2 4 4 5 5 5 4 2 4 4 3 3 3 3 1 3 0 1 1 3 1 3 4 6 6 5 6 7 9
8 10 9 9 8 8 10 8 6 4 3 1 2 4 2 3 4 3 3 4 3 3 4 5 4 4 4 2 3 2 1 1 1 2 3 3 2 3 5 5 6 6 8
6 6 9 10 10 9 10 9 10 9 5 3 4 4 2 3 3 4 3 2 3 3 4 4 4 5 4 4 2 3 3 3 3 4 5 3 3 3 3 5 6 8 8
Wind_Direction
159 151 132 125 121 119 115 108 105 106 109 113 116 120 124 125 129 126 123 119 108 109 102 100 95 93 93 95 98 106 107 106 111 111 109 102 97 90 95 104 96 95 96
137 146 139 130 125 122 116 112 113 113 114 115 118 122 127 125 126 130 134 121 117 111 100 99 106 104 104 105 108 115 114 111 112 116 113 107 107 104 100 106 105 102 104
138 143 142 131 129 126 120 116 116 116 116 115 117 122 125 125 127 126 122 115 119 117 111 107 109 114 115 119 123 118 120 124 120 107 108 111 112 114 114 114 112 108 100
135 141 140 134 134 130 126 125 125 122 120 118 119 120 119 123 122 122 117 115 110 118 115 126 123 122 119 123 127 128 123 112 107 94 86 102 111 119 118 116 109 103 100
132 125 143 138 138 136 134 134 128 127 124 123 124 124 124 125 122 120 117 116 121 121 121 122 130 132 128 135 138 144 129 118 109 95 95 97 99 127 124 122 121 121 117
132 126 146 145 147 146 145 141 137 135 133 133 131 130 133 133 130 124 122 127 128 139 136 131 133 139 139 134 142 147 145 144 108 84 117 134 140 160 143 136 129 122 113
133 143 148 151 151 151 151 150 147 146 143 143 140 140 146 146 144 141 145 147 149 157 151 150 151 155 160 160 159 158 161 172 86 86 156 158 162 160 159 151 142 132 129
140 149 157 158 159 160 163 160 160 157 153 153 151 151 160 151 148 153 154 164 169 178 180 168 161 162 169 176 183 182 188 201 182 296 200 184 190 211 190 188 162 155 142
141 152 152 162 172 174 175 172 173 167 162 163 163 163 161 161 159 168 171 182 183 190 186 192 181 176 180 192 196 199 199 199 189 226 209 194 193 200 212 209 200 193 176
131 158 159 163 175 166 176 182 179 174 168 175 173 167 172 173 162 154 140 207 200 199 198 196 197 193 192 199 207 203 214 211 184 182 201 188 187 194 232 199 213 219 211
157 155 152 169 168 177 187 184 181 180 183 176 176 177 144 89 108 110 122 246 219 218 211 201 208 203 210 210 220 224 223 156 205 199 196 203 195 199 219 221 211 223 221
178 175 177 184 178 175 181 190 169 182 179 140 129 118 149 142 171 165 101 311 237 225 210 217 213 214 211 156 265 343 348 185 214 222 222 232 216 212 223 226 219 228 228
178 184 186 184 181 180 177 165 182 168 147 131 132 171 181 175 196 259 244 307 277 263 218 220 268 262 210 185 205 183 224 245 231 239 227 227 230 218 229 228 229 227 234
183 187 182 193 177 189 169 186 192 151 129 149 178 193 197 220 209 218 238 251 232 249 213 211 220 250 234 228 218 207 205 226 231 240 253 244 239 235 237 245 245 236 235
187 188 189 187 187 193 188 184 177 171 177 173 175 201 221 249 247 218 224 232 204 198 200 212 234 224 243 242 238 227 221 216 232 231 233 246 248 251 255 245 252 241 237
194 191 182 192 196 188 202 185 193 168 164 167 217 223 226 225 234 225 215 223 218 218 196 213 216 231 236 242 259 244 247 233 224 219 221 237 250 257 258 260 254 237 233
201 184 190 192 195 193 202 190 184 160 163 211 225 223 232 223 223 231 226 217 221 208 194 209 207 212 233 232 243 245 228 239 240 229 217 215 237 249 264 266 250 235 232
181 186 188 196 200 194 201 180 170 173 179 222 235 233 228 226 224 229 230 238 207 188 189 198 196 199 229 230 239 242 234 225 240 238 230 213 217 227 235 253 254 242 240
180 177 190 191 193 197 187 176 184 189 190 214 237 234 228 226 227 219 239 259 236 220 207 191 205 198 202 230 235 235 235 234 249 258 248 234 234 229 234 244 249 251 245
168 180 184 192 183 179 162 168 189 209 221 182 210 235 240 236 236 230 241 242 237 253 235 215 205 213 204 212 250 234 229 237 237 232 250 255 240 239 236 228 237 245 244
171 170 183 181 176 166 143 177 223 224 222 216 202 215 220 226 229 218 237 247 222 237 241 238 215 199 206 178 124 310 251 232 229 239 242 250 258 258 256 249 239 237 242
183 181 182 189 174 185 183 179 185 185 228 223 199 207 209 216 233 237 232 228 211 215 233 238 220 202 182 175 148 182 291 327 281 243 239 241 256 258 256 251 250 241 238
184 191 182 184 184 181 189 149 133 0 334 286 229 251 223 207 230 242 249 230 226 207 223 223 223 207 203 179 209 156 149 242 326 312 236 234 253 265 265 256 256 252 242
204 179 172 171 177 189 170 188 192 195 218 232 259 230 215 213 233 247 267 238 246 193 223 235 242 222 162 196 187 245 232 137 187 325 257 255 239 255 271 268 266 255 240
180 179 172 163 176 194 186 186 207 222 235 256 285 283 234 230 213 209 244 263 203 217 229 212 235 213 217 188 182 143 190 210 121 213 284 298 279 259 251 252 257 255 245
177 187 168 168 191 191 186 185 198 213 215 241 262 278 259 251 235 215 179 272 247 247 255 251 239 232 234 246 209 182 172 179 189 205 235 254 261 283 265 255 256 250 238